TimeCST,TemperatureF,Dew PointF,Humidity,Sea Level PressureIn,VisibilityMPH,Wind Direction,Wind SpeedMPH,Gust SpeedMPH,PrecipitationIn,Events,Conditions,WindDirDegrees,DateUTC
12:15 AM,17.6,10.4,73,30.16,10.0,NNW,15.0,18.4,N/A,,Clear,330,2013-02-15 06:15:00
12:55 AM,17.6,8.6,68,30.17,10.0,NNW,11.5,-,N/A,,Clear,330,2013-02-15 06:55:00
1:15 AM,15.8,8.6,73,30.18,10.0,NW,13.8,21.9,N/A,,Clear,320,2013-02-15 07:15:00
1:35 AM,15.8,8.6,73,30.18,10.0,NW,12.7,16.1,N/A,,Clear,320,2013-02-15 07:35:00
1:55 AM,14.0,6.8,73,30.19,10.0,NW,13.8,-,N/A,,Clear,320,2013-02-15 07:55:00
2:15 AM,14.0,5.0,67,30.19,10.0,NW,11.5,19.6,N/A,,Clear,320,2013-02-15 08:15:00
2:35 AM,14.0,3.2,62,30.19,10.0,NW,11.5,17.3,N/A,,Clear,320,2013-02-15 08:35:00
2:55 AM,14.0,3.2,62,30.20,10.0,NW,11.5,18.4,N/A,,Clear,320,2013-02-15 08:55:00
3:15 AM,14.0,3.2,62,30.20,10.0,NW,10.4,-,N/A,,Clear,320,2013-02-15 09:15:00
3:35 AM,14.0,3.2,62,30.20,10.0,NW,8.1,-,N/A,,Clear,320,2013-02-15 09:35:00
3:55 AM,14.0,5.0,67,30.20,10.0,NW,10.4,-,N/A,,Clear,310,2013-02-15 09:55:00
4:15 AM,12.2,5.0,73,30.20,10.0,NW,10.4,-,N/A,,Clear,310,2013-02-15 10:15:00
4:35 AM,12.2,5.0,73,30.20,10.0,WNW,11.5,-,N/A,,Clear,300,2013-02-15 10:35:00
4:55 AM,12.2,5.0,73,30.21,10.0,NW,13.8,-,N/A,,Clear,310,2013-02-15 10:55:00
5:15 AM,12.2,5.0,73,30.21,10.0,NW,12.7,19.6,N/A,,Clear,310,2013-02-15 11:15:00
5:35 AM,12.2,5.0,73,30.21,10.0,NW,13.8,-,N/A,,Clear,310,2013-02-15 11:35:00
5:55 AM,12.2,5.0,73,30.22,10.0,NW,12.7,19.6,N/A,,Clear,310,2013-02-15 11:55:00
6:15 AM,12.2,5.0,73,30.22,10.0,NW,15.0,19.6,N/A,,Clear,310,2013-02-15 12:15:00
6:35 AM,12.2,5.0,73,30.23,10.0,NW,13.8,19.6,N/A,,Clear,310,2013-02-15 12:35:00
6:55 AM,12.2,5.0,73,30.23,10.0,NW,16.1,19.6,N/A,,Mostly Cloudy,310,2013-02-15 12:55:00
7:15 AM,12.2,5.0,73,30.23,10.0,NW,16.1,-,N/A,,Overcast,320,2013-02-15 13:15:00
7:35 AM,12.2,5.0,73,30.24,10.0,NNW,13.8,19.6,N/A,,Mostly Cloudy,330,2013-02-15 13:35:00
7:55 AM,12.2,5.0,73,30.25,10.0,NNW,13.8,18.4,N/A,,Scattered Clouds,330,2013-02-15 13:55:00
8:15 AM,12.2,5.0,73,30.25,10.0,NNW,13.8,17.3,N/A,,Clear,330,2013-02-15 14:15:00
8:35 AM,14.0,6.8,73,30.26,10.0,NW,11.5,-,N/A,,Clear,320,2013-02-15 14:35:00
8:55 AM,14.0,6.8,73,30.26,10.0,NW,11.5,-,N/A,,Clear,310,2013-02-15 14:55:00
9:15 AM,14.0,6.8,73,30.26,10.0,NW,13.8,19.6,N/A,,Scattered Clouds,320,2013-02-15 15:15:00
9:35 AM,14.0,6.8,73,30.26,10.0,NW,13.8,21.9,N/A,,Scattered Clouds,320,2013-02-15 15:35:00
9:55 AM,15.8,8.6,73,30.26,10.0,NNW,17.3,-,N/A,,Scattered Clouds,330,2013-02-15 15:55:00
10:15 AM,17.6,8.6,68,30.27,10.0,NNW,12.7,21.9,N/A,,Scattered Clouds,330,2013-02-15 16:15:00
10:35 AM,17.6,8.6,68,30.27,10.0,NW,15.0,-,N/A,,Scattered Clouds,320,2013-02-15 16:35:00
10:55 AM,17.6,8.6,68,30.27,10.0,NW,15.0,20.7,N/A,,Scattered Clouds,320,2013-02-15 16:55:00
11:15 AM,19.4,8.6,63,30.26,10.0,NW,15.0,19.6,N/A,,Clear,320,2013-02-15 17:15:00
11:35 AM,19.4,10.4,68,30.26,10.0,NNW,16.1,20.7,N/A,,Clear,330,2013-02-15 17:35:00
11:55 AM,19.4,10.4,68,30.26,10.0,NNW,17.3,23.0,N/A,,Clear,340,2013-02-15 17:55:00
12:15 PM,21.2,10.4,63,30.26,10.0,NW,15.0,19.6,N/A,,Clear,320,2013-02-15 18:15:00
12:55 PM,21.2,10.4,63,30.25,10.0,NNW,16.1,23.0,N/A,,Clear,330,2013-02-15 18:55:00
1:15 PM,21.2,10.4,63,30.25,10.0,NW,16.1,19.6,N/A,,Clear,320,2013-02-15 19:15:00
1:35 PM,21.2,12.2,68,30.25,10.0,NNW,15.0,19.6,N/A,,Scattered Clouds,330,2013-02-15 19:35:00
1:55 PM,21.2,10.4,63,30.25,10.0,NNW,13.8,21.9,N/A,,Scattered Clouds,330,2013-02-15 19:55:00
2:15 PM,21.2,12.2,68,30.25,10.0,NNW,13.8,18.4,N/A,,Scattered Clouds,340,2013-02-15 20:15:00
2:35 PM,21.2,10.4,63,30.25,10.0,NNW,11.5,19.6,N/A,,Scattered Clouds,330,2013-02-15 20:35:00
2:55 PM,21.2,10.4,63,30.26,10.0,NW,15.0,-,N/A,,Scattered Clouds,310,2013-02-15 20:55:00
3:15 PM,21.2,10.4,63,30.26,10.0,NNW,18.4,23.0,N/A,,Scattered Clouds,330,2013-02-15 21:15:00
3:35 PM,21.2,10.4,63,30.26,10.0,NW,16.1,-,N/A,,Scattered Clouds,320,2013-02-15 21:35:00
3:55 PM,21.2,10.4,63,30.26,10.0,NNW,15.0,-,N/A,,Clear,330,2013-02-15 21:55:00
4:15 PM,21.2,10.4,63,30.26,10.0,NW,11.5,-,N/A,,Scattered Clouds,310,2013-02-15 22:15:00
4:35 PM,21.2,10.4,63,30.26,10.0,NW,11.5,-,N/A,,Scattered Clouds,310,2013-02-15 22:35:00
4:55 PM,21.2,8.6,58,30.27,10.0,NW,15.0,18.4,N/A,,Scattered Clouds,310,2013-02-15 22:55:00
5:15 PM,19.4,8.6,63,30.27,10.0,NNW,13.8,19.6,N/A,,Clear,330,2013-02-15 23:15:00
5:35 PM,19.4,6.8,58,30.27,10.0,NNW,16.1,20.7,N/A,,Clear,330,2013-02-15 23:35:00
5:55 PM,19.4,5.0,54,30.27,10.0,NW,15.0,21.9,N/A,,Clear,320,2013-02-15 23:55:00
6:15 PM,19.4,6.8,58,30.27,10.0,NW,11.5,-,N/A,,Clear,320,2013-02-16 00:15:00
6:35 PM,17.6,5.0,58,30.28,10.0,NW,12.7,-,N/A,,Clear,320,2013-02-16 00:35:00
6:55 PM,17.6,5.0,58,30.27,10.0,NW,11.5,-,N/A,,Clear,320,2013-02-16 00:55:00
7:15 PM,17.6,5.0,58,30.27,10.0,NW,8.1,-,N/A,,Clear,320,2013-02-16 01:15:00
7:35 PM,17.6,3.2,53,30.27,10.0,NW,10.4,17.3,N/A,,Clear,320,2013-02-16 01:35:00
7:55 PM,15.8,5.0,62,30.27,10.0,NW,11.5,-,N/A,,Clear,310,2013-02-16 01:55:00
8:15 PM,15.8,5.0,62,30.27,10.0,NW,9.2,16.1,N/A,,Clear,310,2013-02-16 02:15:00
8:35 PM,15.8,5.0,62,30.27,10.0,NW,10.4,-,N/A,,Clear,310,2013-02-16 02:35:00
8:55 PM,15.8,6.8,68,30.27,10.0,NW,8.1,-,N/A,,Clear,320,2013-02-16 02:55:00
9:15 PM,14.0,8.6,79,30.27,10.0,NW,5.8,-,N/A,,Clear,320,2013-02-16 03:15:00
9:35 PM,14.0,8.6,79,30.27,10.0,NW,9.2,-,N/A,,Clear,310,2013-02-16 03:35:00
9:55 PM,14.0,8.6,79,30.27,10.0,NW,10.4,-,N/A,,Clear,310,2013-02-16 03:55:00
10:15 PM,14.0,8.6,79,30.26,10.0,WNW,10.4,-,N/A,,Clear,300,2013-02-16 04:15:00
10:35 PM,14.0,8.6,79,30.26,10.0,WNW,8.1,-,N/A,,Clear,300,2013-02-16 04:35:00
10:55 PM,14.0,8.6,79,30.26,10.0,NW,8.1,-,N/A,,Clear,310,2013-02-16 04:55:00
11:15 PM,14.0,8.6,79,30.26,10.0,WNW,10.4,-,N/A,,Clear,300,2013-02-16 05:15:00
11:35 PM,14.0,8.6,79,30.25,10.0,WNW,9.2,-,N/A,,Clear,300,2013-02-16 05:35:00
11:55 PM,14.0,8.6,79,30.24,10.0,WNW,10.4,-,N/A,,Clear,300,2013-02-16 05:55:00